Time,TemperatureF,DewpointF,PressureIn,WindDirection,WindDirectionDegrees,WindSpeedMPH,WindSpeedGustMPH,Humidity,HourlyPrecipIn,Conditions,Clouds,dailyrainin,SoftwareType,DateUTC
2015-05-22 00:03:00,56.3,0.5,29.93,NNE,23,8.5,12.5,7,0.00,,,0.00,WUHU216HW,2015-05-22 05:03:00,
2015-05-22 00:08:00,55.6,-0.1,29.93,NNE,23,11.4,11.9,1,0.00,,,0.00,WUHU216HW,2015-05-22 05:08:00,
2015-05-22 00:13:00,55.1,-0.4,29.94,NE,45,7.6,11.9,1,0.00,,,0.00,WUHU216HW,2015-05-22 05:13:00,
2015-05-22 00:18:00,54.5,-0.9,29.94,NE,45,11.4,13.0,1,0.00,,,0.00,WUHU216HW,2015-05-22 05:18:00,
2015-05-22 00:23:00,54.0,-1.3,29.94,North,0,9.2,17.2,1,0.00,,,0.00,WUHU216HW,2015-05-22 05:23:00,
2015-05-22 00:28:00,53.5,-1.8,29.94,NNE,23,10.3,17.2,1,0.00,,,0.00,WUHU216HW,2015-05-22 05:28:00,
2015-05-22 00:33:00,52.9,-2.1,29.94,NNE,23,10.1,11.9,1,0.00,,,0.00,WUHU216HW,2015-05-22 05:33:00,
2015-05-22 00:38:00,52.4,-2.6,29.94,NE,45,8.3,11.9,1,0.00,,,0.00,WUHU216HW,2015-05-22 05:38:00,
2015-05-22 00:43:00,52.0,-2.9,29.94,NNE,23,5.4,11.9,1,0.00,,,0.00,WUHU216HW,2015-05-22 05:43:00,
2015-05-22 00:48:00,51.7,-3.2,29.95,NE,45,7.4,10.5,1,0.00,,,0.00,WUHU216HW,2015-05-22 05:48:00,
2015-05-22 00:53:00,51.5,-3.3,29.95,ENE,68,9.8,11.2,2,0.00,,,0.00,WUHU216HW,2015-05-22 05:53:00,
2015-05-22 00:58:00,51.3,-3.5,29.95,NE,45,7.2,11.2,3,0.00,,,0.00,WUHU216HW,2015-05-22 05:58:00,
2015-05-22 01:03:00,50.8,-4.0,29.95,ENE,68,10.1,10.1,8,0.00,,,0.00,WUHU216HW,2015-05-22 06:03:00,
2015-05-22 01:08:00,50.6,-4.0,29.95,NE,45,5.6,10.1,8,0.00,,,0.00,WUHU216HW,2015-05-22 06:08:00,
2015-05-22 01:13:00,50.4,-1.2,29.95,East,90,6.7,10.1,12,0.00,,,0.00,WUHU216HW,2015-05-22 06:13:00,
2015-05-22 01:18:00,50.2,1.7,29.96,ENE,68,6.3,8.5,14,0.00,,,0.00,WUHU216HW,2015-05-22 06:18:00,
2015-05-22 01:23:00,50.0,7.6,29.96,NNE,23,6.7,9.8,18,0.00,,,0.00,WUHU216HW,2015-05-22 06:23:00,
2015-05-22 01:28:00,50.0,11.5,29.96,ENE,68,6.9,9.8,21,0.00,,,0.00,WUHU216HW,2015-05-22 06:28:00,
2015-05-22 01:33:00,50.0,13.4,29.96,East,90,6.0,8.7,23,0.00,,,0.00,WUHU216HW,2015-05-22 06:33:00,
2015-05-22 01:38:00,49.7,15.0,29.96,NE,45,5.8,10.3,25,0.00,,,0.00,WUHU216HW,2015-05-22 06:38:00,
2015-05-22 01:43:00,49.7,14.0,29.96,NE,45,7.4,10.3,24,0.00,,,0.00,WUHU216HW,2015-05-22 06:43:00,
2015-05-22 01:48:00,49.3,14.6,29.96,NNE,23,5.4,7.6,25,0.00,,,0.00,WUHU216HW,2015-05-22 06:48:00,
2015-05-22 01:53:00,49.0,14.3,29.96,ENE,68,4.0,7.6,25,0.00,,,0.00,WUHU216HW,2015-05-22 06:53:00,
2015-05-22 01:58:00,49.0,18.9,29.96,NNE,23,5.1,7.2,30,0.00,,,0.00,WUHU216HW,2015-05-22 06:58:00,
2015-05-22 02:03:00,48.8,19.4,29.96,ENE,68,4.9,7.2,31,0.00,,,0.00,WUHU216HW,2015-05-22 07:03:00,
2015-05-22 02:08:00,48.8,19.4,29.96,East,90,3.1,6.7,31,0.00,,,0.00,WUHU216HW,2015-05-22 07:08:00,
2015-05-22 02:13:00,48.6,20.0,29.96,ENE,68,4.0,6.5,32,0.00,,,0.00,WUHU216HW,2015-05-22 07:13:00,
2015-05-22 02:18:00,48.4,20.5,29.96,ESE,113,1.8,6.0,33,0.00,,,0.00,WUHU216HW,2015-05-22 07:18:00,
2015-05-22 02:23:00,48.2,19.0,29.97,East,90,1.8,4.5,31,0.00,,,0.00,WUHU216HW,2015-05-22 07:23:00,
2015-05-22 02:28:00,47.9,19.4,29.97,ESE,113,4.5,6.3,32,0.00,,,0.00,WUHU216HW,2015-05-22 07:28:00,
2015-05-22 02:33:00,47.9,20.1,29.97,ESE,113,5.4,6.3,33,0.00,,,0.00,WUHU216HW,2015-05-22 07:33:00,
2015-05-22 02:42:00,47.5,20.3,29.98,ESE,113,0.4,5.4,34,0.00,,,0.00,WUHU216HW,2015-05-22 07:42:00,
2015-05-22 02:47:00,47.2,20.7,29.98,ESE,113,0.0,0.9,35,0.00,,,0.00,WUHU216HW,2015-05-22 07:47:00,
2015-05-22 02:52:00,46.6,19.5,29.98,SE,135,0.2,0.4,34,0.00,,,0.00,WUHU216HW,2015-05-22 07:52:00,
2015-05-22 02:57:00,46.3,17.9,29.98,SSW,203,0.0,0.2,32,0.00,,,0.00,WUHU216HW,2015-05-22 07:57:00,
2015-05-22 03:02:00,46.1,16.4,29.98,SW,225,0.4,1.1,30,0.00,,,0.00,WUHU216HW,2015-05-22 08:02:00,
2015-05-22 03:07:00,45.7,16.7,29.98,SW,225,0.0,1.1,31,0.00,,,0.00,WUHU216HW,2015-05-22 08:07:00,
2015-05-22 03:12:00,45.4,14.9,29.98,East,90,0.4,0.4,29,0.00,,,0.00,WUHU216HW,2015-05-22 08:12:00,
2015-05-22 03:17:00,45.0,14.6,29.98,East,90,0.0,0.4,29,0.00,,,0.00,WUHU216HW,2015-05-22 08:17:00,
2015-05-22 03:22:00,44.6,10.6,29.99,SSW,203,0.0,0.4,25,0.00,,,0.00,WUHU216HW,2015-05-22 08:22:00,
2015-05-22 03:27:00,44.6,8.8,29.99,SSW,203,0.0,0.4,23,0.00,,,0.00,WUHU216HW,2015-05-22 08:27:00,
2015-05-22 03:32:00,44.3,5.8,29.99,NE,45,0.4,0.7,20,0.00,,,0.00,WUHU216HW,2015-05-22 08:32:00,
2015-05-22 03:37:00,44.3,2.9,29.99,NE,45,1.1,1.1,18,0.00,,,0.00,WUHU216HW,2015-05-22 08:37:00,
2015-05-22 03:42:00,44.3,-1.5,29.99,NE,45,0.9,1.1,15,0.00,,,0.00,WUHU216HW,2015-05-22 08:42:00,
2015-05-22 03:47:00,44.1,4.1,29.99,NE,45,0.0,1.1,19,0.00,,,0.00,WUHU216HW,2015-05-22 08:47:00,
2015-05-22 03:52:00,43.7,7.1,29.99,NE,45,0.0,0.9,22,0.00,,,0.00,WUHU216HW,2015-05-22 08:52:00,
2015-05-22 03:57:00,43.4,2.1,29.99,NE,45,0.0,0.2,18,0.00,,,0.00,WUHU216HW,2015-05-22 08:57:00,
2015-05-22 04:02:00,43.2,4.9,29.99,North,0,0.0,0.4,20,0.00,,,0.00,WUHU216HW,2015-05-22 09:02:00,
2015-05-22 04:07:00,42.8,5.4,30.00,North,0,0.2,0.4,21,0.00,,,0.00,WUHU216HW,2015-05-22 09:07:00,
2015-05-22 04:12:00,42.5,6.0,30.00,North,0,0.0,0.4,22,0.00,,,0.00,WUHU216HW,2015-05-22 09:12:00,
2015-05-22 04:17:00,42.1,4.9,30.00,NW,315,0.0,0.4,21,0.00,,,0.00,WUHU216HW,2015-05-22 09:17:00,
2015-05-22 04:22:00,41.9,-10.7,30.00,WSW,248,0.0,1.1,9,0.00,,,0.00,WUHU216HW,2015-05-22 09:22:00,
2015-05-22 04:27:00,41.8,-10.8,30.01,WSW,248,0.0,1.1,1,0.00,,,0.00,WUHU216HW,2015-05-22 09:27:00,
2015-05-22 04:32:00,41.4,-11.1,30.01,WSW,248,0.0,0.4,2,0.00,,,0.00,WUHU216HW,2015-05-22 09:32:00,
2015-05-22 04:37:00,41.2,-11.2,30.01,NNW,338,0.0,0.0,5,0.00,,,0.00,WUHU216HW,2015-05-22 09:37:00,
2015-05-22 04:42:00,40.9,-11.5,30.01,North,0,0.9,0.9,3,0.00,,,0.00,WUHU216HW,2015-05-22 09:42:00,
2015-05-22 04:47:00,40.7,-11.6,30.02,North,0,1.1,1.6,3,0.00,,,0.00,WUHU216HW,2015-05-22 09:47:00,
2015-05-22 04:52:00,40.5,-11.8,30.02,North,0,0.7,1.6,5,0.00,,,0.00,WUHU216HW,2015-05-22 09:52:00,
2015-05-22 04:57:00,40.3,-11.9,30.02,NNE,23,0.0,1.6,5,0.00,,,0.00,WUHU216HW,2015-05-22 09:57:00,
2015-05-22 05:02:00,40.1,-12.1,30.02,North,0,0.7,1.6,5,0.00,,,0.00,WUHU216HW,2015-05-22 10:02:00,
2015-05-22 05:07:00,40.0,-12.2,30.02,North,0,0.2,1.3,5,0.00,,,0.00,WUHU216HW,2015-05-22 10:07:00,
2015-05-22 05:12:00,40.0,-12.2,30.03,North,0,1.1,1.8,1,0.00,,,0.00,WUHU216HW,2015-05-22 10:12:00,
2015-05-22 05:17:00,40.3,-11.9,30.03,NNE,23,1.6,2.2,1,0.00,,,0.00,WUHU216HW,2015-05-22 10:17:00,
2015-05-22 05:22:00,40.7,-11.6,30.03,NNE,23,0.7,2.2,1,0.00,,,0.00,WUHU216HW,2015-05-22 10:22:00,
2015-05-22 05:27:00,40.7,-11.6,30.03,NNE,23,2.0,2.7,1,0.00,,,0.00,WUHU216HW,2015-05-22 10:27:00,
2015-05-22 05:32:00,40.9,-11.5,30.04,NNE,23,1.1,2.7,1,0.00,,,0.00,WUHU216HW,2015-05-22 10:32:00,
2015-05-22 05:37:00,41.0,-11.3,30.04,NNE,23,1.8,2.9,1,0.00,,,0.00,WUHU216HW,2015-05-22 10:37:00,
2015-05-22 05:42:00,41.4,-11.1,30.04,NNE,23,2.0,2.9,1,0.00,,,0.00,WUHU216HW,2015-05-22 10:42:00,
2015-05-22 05:47:00,41.4,-11.1,30.04,NNE,23,2.2,3.1,1,0.00,,,0.00,WUHU216HW,2015-05-22 10:47:00,
2015-05-22 05:52:00,41.6,-11.0,30.04,NNE,23,2.5,3.4,1,0.00,,,0.00,WUHU216HW,2015-05-22 10:52:00,
2015-05-22 05:57:00,41.8,-10.8,30.04,NNE,23,2.0,3.4,1,0.00,,,0.00,WUHU216HW,2015-05-22 10:57:00,
2015-05-22 06:02:00,43.2,-9.8,30.05,NNE,23,2.9,3.1,1,0.00,,,0.00,WUHU216HW,2015-05-22 11:02:00,
2015-05-22 06:07:00,45.2,-8.2,30.05,North,0,1.8,3.6,1,0.00,,,0.00,WUHU216HW,2015-05-22 11:07:00,
2015-05-22 06:12:00,46.8,2.0,30.05,NNE,23,2.2,3.6,16,0.00,,,0.00,WUHU216HW,2015-05-22 11:12:00,
2015-05-22 06:17:00,47.7,11.3,30.05,North,0,2.5,3.8,23,0.00,,,0.00,WUHU216HW,2015-05-22 11:17:00,
2015-05-22 06:22:00,48.4,19.2,30.05,NNE,23,2.7,3.8,31,0.00,,,0.00,WUHU216HW,2015-05-22 11:22:00,
2015-05-22 06:27:00,48.8,22.9,30.06,NNE,23,3.8,4.7,36,0.00,,,0.00,WUHU216HW,2015-05-22 11:27:00,
2015-05-22 06:32:00,49.3,24.7,30.06,NNE,23,2.0,4.9,38,0.00,,,0.00,WUHU216HW,2015-05-22 11:32:00,
2015-05-22 06:37:00,49.7,25.7,30.06,North,0,3.4,4.9,39,0.00,,,0.00,WUHU216HW,2015-05-22 11:37:00,
2015-05-22 06:42:00,50.6,28.8,30.07,NNE,23,4.5,5.4,43,0.00,,,0.00,WUHU216HW,2015-05-22 11:42:00,
2015-05-22 06:47:00,51.3,29.4,30.07,NNE,23,3.8,5.4,43,0.00,,,0.00,WUHU216HW,2015-05-22 11:47:00,
2015-05-22 06:52:00,51.8,31.1,30.07,NNE,23,4.9,4.9,45,0.00,,,0.00,WUHU216HW,2015-05-22 11:52:00,
2015-05-22 06:57:00,52.2,31.4,30.07,NNE,23,4.5,4.9,45,0.00,,,0.00,WUHU216HW,2015-05-22 11:57:00,
2015-05-22 07:02:00,52.9,32.6,30.07,North,0,2.9,4.9,46,0.00,,,0.00,WUHU216HW,2015-05-22 12:02:00,
2015-05-22 07:07:00,53.5,33.0,30.07,NNE,23,1.1,6.3,46,0.00,,,0.00,WUHU216HW,2015-05-22 12:07:00,
2015-05-22 07:12:00,53.3,33.0,30.07,NE,45,3.1,6.3,46,0.00,,,0.00,WUHU216HW,2015-05-22 12:12:00,
2015-05-22 07:17:00,52.9,32.6,30.07,NE,45,6.0,6.0,46,0.00,,,0.00,WUHU216HW,2015-05-22 12:17:00,
2015-05-22 07:22:00,52.4,32.1,30.07,NE,45,4.9,6.0,46,0.00,,,0.00,WUHU216HW,2015-05-22 12:22:00,
2015-05-22 07:27:00,52.2,32.0,30.08,NE,45,3.8,6.0,46,0.00,,,0.00,WUHU216HW,2015-05-22 12:27:00,
2015-05-22 07:32:00,52.4,32.1,30.08,NNE,23,3.6,4.9,46,0.00,,,0.00,WUHU216HW,2015-05-22 12:32:00,